Starlink 30114

operational
NORAD ID: 56826 Int'l Des: 2023-079 Owner: SPXS Country: US Constellation: starlink
LEOCIRCULAR

Über Starlink 30114

Beschreibung wird geladen...

Live-Position

3D-Globus wird geladen...

Nächste Überflüge

Höhenverlauf

Altitude vs Time

uPlot chart will show altitude changes over time

Zweizeiliger Elementsatz

1 56826U 23079D 25354.53056565 -.00001859 00000-0 -12263-3 0 9994
2 56826 43.0099 177.5913 0002999 284.0234 76.0275 15.02507040141297
Epoch: 20. Dez. 2025 • Age: 12 hours

Aktueller Status

Höhe 560.1 km
Geschwindigkeit 7.58 km/s
Subsatellitenpunkt -4.96°S, 100.64°W
Startdatum 4. Juni 2023
Alter 2.5 years
Typ internet

Technische Details

Klassifizierung Payload
Masse 730.00 kg
Trockenmasse 700.00 kg
Gesamtmasse 730.00 kg
Länge 0.30 m
Durchmesser 4.10 m
Spannweite 29.00 m
Form Box + pan
Hersteller SPXS
Bus-Typ Starlink V2M
Phasenstatus In Orbit
Besitzer/Staat SPXS/US

Große Konstellationen

Loading constellations...